Location: Buffign�court
(47.8126°N, 6.0176°E)
Time: 15:07:54
(UTC+00:00)

ALOS 2 - Pass Details

Date: 16 June 2021
Orbit: 630 x 632 km, 97.9° (Epoch: 01 August)

Event Time Altitude Azimuth Distance (km) Brightness Sun altitude
Exits shadow 23:49:23 25° 236° (SW) 1,280 3.8 -18.8°
Maximum altitude 23:50:36 29° 265° (W) 1,168 3.9 -18.7°
Drops below altitude 10° 23:54:27 10° 326° (NW) 2,025 5.9 -18.7°
Sets 23:56:55 0° 337° (NNW) 2,938 7.1 -18.7°
